Wind_Speed
3 3 2 2 2 3 2 2 2 2 2 2 2 2 3 3 2 2 3 3 2 2 2 2 3 3 3 4 4 5 6 7 7 6 6 6 7 7 7 6 6 6 6
4 3 3 3 3 3 3 3 2 2 3 3 3 3 3 3 4 3 4 4 4 3 3 3 3 3 3 4 5 5 6 7 7 7 7 7 7 7 7 7 7 7 6
4 4 4 4 3 3 3 3 3 3 3 4 3 3 3 4 4 4 4 5 4 4 3 3 3 3 4 5 5 5 5 6 7 8 8 7 7 7 7 7 7 7 7
5 5 5 4 4 4 4 4 4 3 3 4 4 3 3 4 3 4 4 5 5 5 4 4 5 4 5 5 5 5 6 6 7 8 8 7 8 8 7 7 7 7 7
6 6 5 5 4 4 4 4 4 4 3 4 4 4 4 4 4 4 5 5 5 5 5 5 5 5 5 6 6 6 6 7 7 8 8 8 9 9 8 8 8 8 8
7 6 6 5 5 4 4 4 4 4 4 4 4 4 4 4 4 4 5 5 6 5 5 5 6 6 6 6 7 7 7 7 8 8 8 8 8 9 9 9 9 8 9
7 7 6 5 5 5 4 5 5 4 4 5 5 5 5 5 4 5 5 6 6 6 6 6 6 6 6 7 7 7 8 8 9 9 9 8 8 8 9 9 9 9 9
8 8 7 7 6 5 5 6 6 5 6 6 5 5 5 5 5 5 5 5 6 6 6 6 6 6 6 6 7 8 8 9 9 9 9 8 8 8 9 9 10 10 10
9 9 8 8 7 6 6 6 6 6 6 6 6 6 5 5 5 5 5 6 6 6 6 6 6 6 6 6 7 8 8 9 10 9 9 8 8 9 9 9 9 10 10
9 9 9 8 8 7 7 6 6 6 6 6 6 5 5 5 5 5 6 7 6 6 6 6 6 5 5 6 6 7 7 8 10 9 9 8 8 9 9 9 9 9 10
9 9 9 8 8 7 7 6 6 6 6 6 6 5 5 6 6 6 6 7 6 6 6 6 6 5 5 6 6 7 7 7 9 9 9 8 8 8 9 9 8 8 9
10 9 9 8 9 8 8 7 7 6 6 6 6 6 6 6 6 6 6 6 6 6 5 5 5 5 5 5 6 6 6 6 6 8 8 8 7 7 8 8 8 8 9
9 9 9 9 8 8 8 8 8 7 7 6 6 6 6 7 6 6 6 6 5 5 5 4 4 4 4 4 5 5 5 5 5 6 7 7 7 7 7 8 9 9 9
10 10 10 9 8 9 9 8 8 8 7 6 6 6 6 6 6 6 6 6 5 5 5 4 4 4 4 4 4 5 5 4 4 4 4 6 6 6 7 7 8 9 9
10 10 10 9 9 9 9 9 8 7 6 6 6 6 6 6 6 6 6 5 5 5 4 4 4 4 3 3 3 3 4 4 4 4 4 5 5 5 6 6 7 7 8
11 11 10 10 10 10 10 9 7 6 6 6 6 6 6 6 5 5 5 5 5 4 4 4 4 4 3 3 2 3 3 3 3 4 4 4 5 5 6 6 6 6 7
11 10 10 10 10 9 8 7 6 5 6 6 6 5 5 5 5 5 5 5 5 4 4 4 4 3 3 2 2 2 2 3 3 4 4 4 5 5 5 5 5 5 5
10 10 9 9 8 7 6 7 6 5 5 5 4 4 5 5 5 5 4 5 5 5 4 4 4 3 3 2 2 2 2 2 3 3 4 4 5 5 5 5 5 5 5
9 9 8 7 6 5 6 6 5 5 5 4 4 5 4 4 4 4 4 4 4 4 4 3 3 3 3 3 2 1 1 2 2 2 3 3 4 4 4 4 5 5 6
9 8 7 6 6 6 5 6 6 5 5 4 4 4 4 3 4 4 4 4 4 4 3 3 3 3 3 3 2 1 1 2 2 2 2 3 3 3 4 4 5 5 6
8 7 6 6 6 6 6 6 6 5 5 4 4 4 3 3 4 4 3 3 3 3 3 3 3 4 4 3 2 2 2 2 2 2 3 3 3 3 4 4 4 6 7
7 7 6 6 5 5 5 5 5 5 5 5 4 3 3 3 3 3 3 3 3 3 3 3 3 3 3 3 3 2 2 2 2 3 4 4 4 5 5 4 5 6 6
6 6 7 6 5 5 5 6 6 5 6 5 4 3 2 2 2 3 2 2 2 2 3 3 3 3 3 3 3 2 2 2 3 3 4 5 5 6 6 6 7 7 8
7 7 7 7 6 6 6 6 7 6 5 5 4 3 2 2 2 2 2 2 2 2 3 3 3 3 4 4 3 3 3 3 3 4 5 5 5 6 7 7 8 8 9
7 7 7 8 7 6 7 7 6 5 5 5 4 3 2 2 2 2 2 1 2 2 3 3 4 4 4 4 4 4 4 4 4 5 5 5 6 7 7 7 7 9 10
6 7 7 8 7 7 8 7 6 6 5 5 4 3 3 3 2 2 2 2 3 3 3 4 5 5 5 5 6 6 6 6 6 6 6 6 7 7 7 7 8 9 9
Wind_Direction
292 296 311 319 316 323 331 337 348 349 349 342 337 339 338 336 333 345 349 332 311 288 262 248 245 231 231 234 232 231 230 230 225 224 226 227 227 229 227 229 227 228 225
286 289 294 295 300 309 319 317 319 335 343 337 324 331 330 328 314 321 339 336 325 307 283 275 259 242 241 241 237 238 239 239 234 231 229 230 234 229 226 231 234 227 224
280 282 283 284 287 292 305 313 310 318 338 343 339 335 326 324 321 319 330 333 329 320 304 283 287 273 264 253 250 245 245 239 233 232 232 233 232 223 224 230 236 232 228
272 277 285 283 285 286 297 308 309 313 326 333 331 327 325 325 324 323 328 329 327 319 309 298 295 286 273 262 256 249 243 240 236 232 234 236 233 228 230 234 238 235 232
266 275 280 280 283 282 286 299 306 306 314 320 324 324 328 328 325 324 325 326 321 315 308 300 294 287 275 265 256 252 246 242 240 237 236 236 237 235 238 240 240 238 234
267 271 273 273 276 275 280 289 299 305 312 314 314 311 321 326 321 322 321 323 318 305 304 301 295 289 274 260 254 252 253 247 243 240 239 239 237 237 239 241 239 240 238
263 265 269 273 274 272 279 287 291 292 303 309 306 308 314 321 315 314 319 320 319 307 300 303 303 297 281 265 259 257 256 250 244 243 242 237 235 238 242 244 244 244 245
259 264 267 272 271 271 276 286 290 290 294 304 306 306 312 317 315 311 313 318 318 312 306 303 303 298 287 271 263 260 258 253 249 250 245 241 241 240 243 245 245 245 244
259 266 269 269 270 272 281 287 288 291 296 300 304 304 311 314 312 314 319 316 318 311 306 304 302 296 284 269 266 264 259 255 250 248 245 244 246 246 245 245 245 244 242
264 266 265 271 273 272 280 284 285 291 296 302 307 309 315 316 312 312 315 316 316 311 308 308 305 297 282 270 264 263 260 255 248 245 241 244 247 248 246 247 248 244 242
264 267 263 267 272 272 278 278 282 289 294 300 304 306 316 316 314 312 313 315 312 310 308 308 306 298 284 271 261 257 254 252 248 245 240 243 247 250 249 249 250 248 246
262 267 270 272 273 273 273 271 277 283 292 299 300 304 311 312 312 314 317 318 312 308 308 305 303 294 284 272 265 257 250 247 247 246 240 241 250 251 251 248 248 249 247
261 262 267 272 271 270 272 275 280 284 291 299 299 303 309 310 315 320 321 320 315 313 313 308 304 298 286 276 271 261 252 244 246 246 242 247 250 249 250 251 247 248 247
258 261 264 270 272 270 272 273 274 281 286 293 300 303 311 312 319 320 318 321 320 318 316 313 311 306 293 284 275 262 254 250 243 242 237 239 247 251 249 249 249 249 250
263 266 265 268 275 277 276 272 273 279 281 292 300 304 309 313 318 323 325 325 324 324 325 325 322 317 306 297 288 272 259 253 239 246 247 244 244 247 248 252 253 253 253
270 271 272 272 275 277 278 276 275 278 284 291 297 306 312 316 320 325 336 333 330 329 331 335 335 334 327 307 285 267 251 246 236 241 252 257 255 256 259 258 257 262 265
277 274 274 276 277 276 274 271 275 279 283 287 293 305 316 317 321 328 340 340 336 335 338 343 341 342 339 314 288 271 251 251 247 245 251 256 256 259 258 257 261 273 278
278 278 272 276 275 268 265 263 271 268 276 282 292 305 318 322 327 331 341 349 351 352 352 356 356 357 357 345 301 272 257 254 253 250 253 255 257 263 262 258 260 267 277
277 276 273 274 269 266 273 268 262 258 260 268 283 300 312 318 324 330 343 350 360 2 5 12 13 7 0 352 331 310 275 251 252 255 259 260 263 268 256 256 263 270 281
275 274 275 269 268 262 267 269 263 251 252 259 275 291 308 320 326 335 343 351 358 3 9 18 16 9 1 358 351 337 296 271 257 259 270 271 270 270 265 267 270 276 282
272 270 269 266 260 260 262 261 260 247 251 257 273 283 301 319 329 337 345 353 357 3 10 15 10 10 17 14 359 351 334 288 265 271 276 283 286 282 277 275 277 280 281
267 265 270 272 262 260 261 261 265 248 248 256 266 275 301 320 331 343 348 353 360 8 12 6 1 10 16 12 3 3 6 336 298 282 278 281 283 282 279 278 282 287 286
267 266 265 265 265 264 264 264 269 253 250 246 256 257 281 309 333 348 348 358 4 2 360 354 357 358 4 7 1 357 335 312 305 301 295 286 285 277 273 277 280 282 283
263 268 270 268 269 264 263 263 260 249 242 239 241 247 264 292 324 346 354 350 350 353 352 353 357 354 352 354 350 342 331 320 310 304 302 297 290 285 284 284 283 283 284
268 268 271 274 271 265 262 263 250 244 242 232 229 239 251 274 304 327 335 331 331 328 332 334 335 338 333 328 328 327 324 321 315 308 303 299 297 293 289 288 288 287 286
268 269 271 273 266 264 262 251 241 240 240 229 226 235 251 263 277 292 303 308 313 315 318 323 321 321 320 315 313 310 310 310 309 306 304 299 295 294 293 294 296 296 293
Height
5884 5884 5884 5883 5883 5883 5882 5882 5882 5881 5881 5880 5880 5879 5879 5878 5878 5878 5878 5878 5877 5877 5877 5877 5877 5877 5877 5877 5878 5878 5879 5879 5880 5881 5882 5882 5883 5884 5884 5885 5886 5887 5888
5884 5883 5883 5883 5883 5883 5882 5882 5881 5881 5880 5880 5879 5879 5878 5878 5878 5877 5878 5877 5877 5877 5877 5877 5877 5877 5877 5877 5877 5877 5878 5879 5879 5880 5881 5882 5882 5882 5883 5884 5885 5886 5887
5883 5883 5883 5883 5883 5882 5882 5881 5881 5880 5880 5879 5879 5879 5878 5878 5877 5877 5877 5877 5876 5876 5876 5876 5876 5876 5876 5876 5876 5876 5877 5877 5878 5879 5880 5881 5881 5881 5882 5883 5884 5885 5887
5883 5883 5883 5882 5882 5882 5881 5881 5881 5880 5880 5879 5879 5878 5878 5877 5877 5877 5876 5876 5876 5876 5875 5875 5875 5875 5875 5875 5875 5875 5876 5876 5877 5878 5879 5879 5880 5881 5882 5883 5884 5885 5886
5882 5882 5882 5882 5881 5881 5881 5881 5880 5880 5879 5879 5878 5878 5877 5877 5876 5876 5876 5875 5875 5875 5875 5874 5874 5874 5874 5874 5874 5874 5875 5875 5876 5876 5877 5878 5879 5880 5881 5882 5883 5883 5885
5881 5881 5881 5881 5881 5881 5880 5880 5880 5879 5879 5878 5878 5877 5877 5876 5876 5876 5875 5875 5874 5874 5874 5873 5873 5873 5872 5872 5872 5873 5873 5874 5874 5875 5876 5877 5877 5878 5879 5880 5881 5882 5883
5880 5880 5880 5880 5880 5880 5880 5879 5879 5879 5878 5878 5877 5877 5876 5876 5875 5875 5874 5874 5873 5873 5872 5872 5872 5871 5871 5871 5871 5871 5872 5872 5873 5874 5875 5875 5876 5877 5878 5879 5880 5881 5882
5879 5879 5879 5879 5879 5879 5879 5878 5878 5878 5878 5877 5876 5876 5875 5875 5874 5874 5874 5873 5872 5872 5871 5871 5870 5870 5870 5870 5870 5870 5870 5871 5872 5872 5873 5874 5875 5876 5877 5878 5879 5880 5881
5878 5878 5878 5878 5878 5878 5878 5877 5877 5877 5877 5876 5876 5875 5874 5874 5874 5873 5873 5872 5871 5871 5870 5870 5869 5868 5868 5868 5868 5868 5869 5869 5870 5871 5872 5873 5873 5874 5875 5876 5877 5878 5879
5876 5876 5877 5877 5877 5877 5877 5876 5876 5876 5876 5875 5875 5874 5873 5873 5873 5872 5871 5871 5870 5869 5869 5868 5868 5867 5867 5867 5867 5867 5867 5868 5868 5869 5870 5871 5872 5873 5874 5875 5876 5877 5878
5875 5875 5875 5875 5875 5875 5875 5875 5875 5874 5874 5874 5874 5873 5873 5872 5872 5871 5870 5870 5869 5868 5867 5867 5866 5866 5865 5865 5865 5866 5866 5866 5867 5868 5869 5870 5871 5871 5872 5873 5874 5875 5876
5873 5873 5874 5874 5874 5874 5874 5874 5874 5874 5873 5873 5873 5873 5872 5871 5871 5870 5869 5868 5867 5867 5866 5865 5865 5865 5864 5864 5864 5864 5865 5865 5866 5867 5868 5868 5869 5870 5871 5872 5873 5874 5875
5871 5872 5872 5872 5872 5872 5873 5872 5873 5872 5872 5872 5872 5871 5871 5870 5869 5869 5868 5867 5866 5865 5865 5864 5864 5863 5863 5863 5863 5863 5864 5864 5865 5866 5867 5868 5868 5869 5870 5871 5871 5872 5873
5870 5870 5870 5871 5871 5871 5871 5871 5871 5871 5871 5871 5870 5870 5870 5869 5868 5868 5867 5866 5865 5864 5864 5863 5863 5862 5862 5862 5862 5862 5863 5863 5865 5865 5866 5867 5868 5868 5869 5870 5870 5871 5871
5868 5868 5868 5869 5869 5869 5869 5869 5869 5869 5869 5869 5869 5869 5869 5868 5867 5867 5866 5865 5865 5863 5863 5862 5862 5862 5861 5861 5861 5862 5862 5863 5864 5864 5865 5866 5866 5867 5868 5869 5869 5870 5870
5866 5866 5866 5866 5867 5867 5867 5868 5868 5868 5868 5868 5868 5868 5868 5867 5867 5866 5865 5865 5864 5863 5862 5862 5861 5861 5861 5861 5861 5861 5862 5862 5863 5864 5865 5865 5866 5866 5867 5868 5868 5868 5868
5864 5864 5864 5864 5864 5865 5866 5866 5867 5867 5867 5867 5867 5867 5867 5866 5866 5865 5865 5864 5863 5862 5862 5861 5861 5860 5860 5860 5860 5861 5861 5862 5862 5863 5864 5865 5865 5866 5866 5867 5867 5867 5866
5862 5862 5862 5862 5863 5863 5864 5865 5865 5865 5866 5866 5866 5866 5866 5865 5865 5865 5864 5863 5862 5862 5861 5861 5860 5860 5860 5860 5860 5860 5861 5861 5862 5863 5864 5864 5865 5865 5866 5866 5867 5867 5867
5860 5860 5860 5861 5861 5862 5863 5863 5864 5864 5865 5865 5866 5865 5865 5865 5864 5864 5863 5863 5862 5861 5861 5861 5861 5860 5860 5860 5860 5860 5860 5861 5862 5863 5863 5864 5864 5865 5865 5866 5866 5866 5866
5858 5859 5859 5859 5860 5861 5861 5862 5863 5863 5864 5865 5865 5865 5865 5864 5864 5863 5863 5862 5862 5861 5861 5861 5861 5860 5860 5860 5860 5860 5860 5861 5862 5862 5863 5863 5864 5864 5865 5865 5865 5866 5866
5857 5857 5858 5858 5858 5859 5860 5861 5862 5862 5863 5864 5864 5864 5864 5864 5863 5863 5862 5862 5861 5861 5861 5861 5861 5860 5860 5860 5860 5860 5860 5861 5861 5862 5862 5863 5863 5863 5864 5864 5864 5864 5865
5855 5856 5856 5857 5857 5858 5859 5860 5860 5861 5862 5863 5863 5863 5864 5863 5863 5863 5862 5862 5861 5861 5861 5861 5861 5860 5860 5860 5860 5860 5861 5861 5861 5861 5861 5862 5862 5862 5862 5863 5863 5863 5863
5854 5854 5855 5856 5856 5857 5858 5859 5859 5860 5861 5861 5862 5863 5863 5863 5863 5862 5862 5862 5861 5861 5861 5861 5861 5861 5860 5860 5860 5860 5860 5861 5860 5861 5860 5860 5861 5861 5861 5861 5861 5862 5862
5853 5853 5854 5854 5855 5856 5856 5857 5858 5859 5859 5861 5861 5862 5862 5862 5862 5862 5862 5862 5861 5861 5861 5861 5861 5861 5860 5860 5860 5860 5860 5860 5860 5860 5860 5860 5860 5860 5860 5860 5860 5860 5860
5851 5851 5852 5853 5854 5854 5855 5856 5857 5858 5859 5860 5860 5861 5862 5862 5862 5862 5862 5862 5861 5861 5861 5861 5860 5860 5860 5860 5860 5860 5860 5859 5859 5859 5859 5859 5859 5859 5859 5858 5858 5858 5858
5849 5850 5851 5851 5852 5853 5854 5854 5856 5857 5858 5859 5860 5861 5861 5862 5862 5862 5861 5861 5861 5861 5860 5860 5860 5860 5859 5859 5859 5859 5859 5859 5858 5858 5858 5858 5858 5858 5857 5857 5857 5856 5856